Time,TemperatureF,DewpointF,PressureIn,WindDirection,WindDirectionDegrees,WindSpeedMPH,WindSpeedGustMPH,Humidity,HourlyPrecipIn,Conditions,Clouds,dailyrainin,SoftwareType,DateUTC
2014-01-02 00:03:00,45.4,43.5,30.11,NE,46,0.0,0.0,93,0.00,,,0.00,Wunderground v.1.15,2014-01-02 05:03:00,
2014-01-02 00:08:00,45.4,43.5,30.11,NE,46,1.0,2.0,93,0.00,,,0.00,Wunderground v.1.15,2014-01-02 05:08:00,
2014-01-02 00:18:00,45.4,43.5,30.09,NE,46,1.0,1.0,93,0.00,,,0.00,Wunderground v.1.15,2014-01-02 05:18:00,
2014-01-02 00:29:00,45.5,43.6,30.09,NE,46,0.0,0.0,93,0.00,,,0.00,Wunderground v.1.15,2014-01-02 05:29:00,
2014-01-02 00:44:00,45.4,43.5,30.08,NE,46,1.0,2.0,93,0.00,,,0.00,Wunderground v.1.15,2014-01-02 05:44:00,
2014-01-02 00:58:00,45.6,43.7,30.08,NE,46,1.0,1.0,93,0.00,,,0.00,Wunderground v.1.15,2014-01-02 05:58:00,
2014-01-02 01:13:00,45.7,43.8,30.08,NE,46,1.0,1.0,93,0.00,,,0.00,Wunderground v.1.15,2014-01-02 06:13:00,
2014-01-02 01:24:00,45.7,43.8,30.07,NE,46,1.0,1.0,93,0.00,,,0.00,Wunderground v.1.15,2014-01-02 06:24:00,
2014-01-02 01:38:00,45.8,43.9,30.07,NE,46,0.0,0.0,93,0.00,,,0.00,Wunderground v.1.15,2014-01-02 06:38:00,
2014-01-02 01:53:00,45.8,43.9,30.06,NE,46,0.0,0.0,93,0.00,,,0.00,Wunderground v.1.15,2014-01-02 06:53:00,
2014-01-02 02:08:00,45.8,43.9,30.07,NE,46,0.0,1.0,93,0.00,,,0.00,Wunderground v.1.15,2014-01-02 07:08:00,
2014-01-02 02:19:00,45.9,44.0,30.08,NE,36,1.0,2.0,93,0.00,,,0.00,Wunderground v.1.15,2014-01-02 07:19:00,
2014-01-02 02:34:00,46.0,44.1,30.07,NE,35,0.0,0.0,93,0.00,,,0.00,Wunderground v.1.15,2014-01-02 07:34:00,
2014-01-02 02:48:00,45.9,44.0,30.06,NE,35,1.0,1.0,93,0.00,,,0.00,Wunderground v.1.15,2014-01-02 07:48:00,
2014-01-02 03:03:00,46.0,44.1,30.06,NE,35,0.0,1.0,93,0.00,,,0.00,Wunderground v.1.15,2014-01-02 08:03:00,
2014-01-02 03:14:00,46.0,44.1,30.06,NE,35,1.0,2.0,93,0.00,,,0.01,Wunderground v.1.15,2014-01-02 08:14:00,
2014-01-02 03:29:00,45.9,44.0,30.05,NNW,328,1.0,1.0,93,0.00,,,0.01,Wunderground v.1.15,2014-01-02 08:29:00,
2014-01-02 03:44:00,45.9,44.0,30.04,NNW,328,1.0,1.0,93,0.00,,,0.01,Wunderground v.1.15,2014-01-02 08:44:00,
2014-01-02 03:58:00,45.8,44.2,30.04,NNW,328,0.0,0.0,94,0.00,,,0.02,Wunderground v.1.15,2014-01-02 08:58:00,
2014-01-02 04:13:00,45.8,44.2,30.03,NNW,328,0.0,0.0,94,0.00,,,0.02,Wunderground v.1.15,2014-01-02 09:13:00,
2014-01-02 04:24:00,45.8,44.2,30.02,NNW,329,0.0,0.0,94,0.09,,,0.04,Wunderground v.1.15,2014-01-02 09:24:00,
2014-01-02 04:39:00,45.7,44.1,30.01,NNW,329,1.0,2.0,94,0.04,,,0.05,Wunderground v.1.15,2014-01-02 09:39:00,
2014-01-02 04:53:00,45.6,44.0,30.00,NNW,329,0.0,0.0,94,0.00,,,0.05,Wunderground v.1.15,2014-01-02 09:53:00,
2014-01-02 05:08:00,45.7,44.1,30.00,NNW,329,0.0,0.0,94,0.00,,,0.06,Wunderground v.1.15,2014-01-02 10:08:00,
2014-01-02 05:23:00,45.6,44.0,30.00,NNW,329,0.0,0.0,94,0.08,,,0.08,Wunderground v.1.15,2014-01-02 10:23:00,
2014-01-02 05:34:00,45.8,44.2,29.99,NNE,28,0.0,0.0,94,0.05,,,0.08,Wunderground v.1.15,2014-01-02 10:34:00,
2014-01-02 05:48:00,45.9,44.3,29.99,NNE,28,0.0,0.0,94,0.07,,,0.10,Wunderground v.1.15,2014-01-02 10:48:00,
2014-01-02 06:03:00,45.9,44.3,29.99,NNE,28,1.0,2.0,94,0.00,,,0.10,Wunderground v.1.15,2014-01-02 11:03:00,
2014-01-02 06:18:00,46.0,44.4,29.98,NNE,28,0.0,0.0,94,0.05,,,0.11,Wunderground v.1.15,2014-01-02 11:18:00,
2014-01-02 06:29:00,45.9,44.3,29.98,NNE,28,0.0,0.0,94,0.05,,,0.12,Wunderground v.1.15,2014-01-02 11:29:00,
2014-01-02 06:44:00,45.9,44.3,29.96,NNE,28,1.0,1.0,94,0.00,,,0.13,Wunderground v.1.15,2014-01-02 11:44:00,
2014-01-02 06:58:00,46.0,44.4,29.96,NNE,28,0.0,0.0,94,0.05,,,0.14,Wunderground v.1.15,2014-01-02 11:58:00,
2014-01-02 07:14:00,46.0,44.6,29.96,NNE,28,0.0,0.0,95,0.06,,,0.15,Wunderground v.1.15,2014-01-02 12:14:00,
2014-01-02 07:28:00,46.2,44.8,29.95,NE,56,1.0,1.0,95,0.04,,,0.16,Wunderground v.1.15,2014-01-02 12:28:00,
2014-01-02 07:43:00,46.3,44.9,29.94,NE,56,0.0,1.0,95,0.07,,,0.18,Wunderground v.1.15,2014-01-02 12:43:00,
2014-01-02 07:58:00,46.4,45.0,29.95,NE,56,1.0,1.0,95,0.05,,,0.19,Wunderground v.1.15,2014-01-02 12:58:00,
2014-01-02 08:13:00,46.5,45.1,29.95,NE,56,0.0,0.0,95,0.06,,,0.21,Wunderground v.1.15,2014-01-02 13:13:00,
2014-01-02 08:28:00,46.6,45.2,29.94,NE,56,0.0,0.0,95,0.06,,,0.22,Wunderground v.1.15,2014-01-02 13:28:00,
2014-01-02 08:43:00,46.8,45.4,29.93,East,79,2.0,2.0,95,0.05,,,0.24,Wunderground v.1.15,2014-01-02 13:43:00,
2014-01-02 08:54:00,47.0,45.6,29.93,East,79,0.0,0.0,95,0.05,,,0.25,Wunderground v.1.15,2014-01-02 13:54:00,
2014-01-02 09:08:00,47.1,45.7,29.93,East,79,0.0,1.0,95,0.07,,,0.26,Wunderground v.1.15,2014-01-02 14:08:00,
2014-01-02 09:23:00,47.3,45.9,29.91,East,80,0.0,0.0,95,0.05,,,0.27,Wunderground v.1.15,2014-01-02 14:23:00,
2014-01-02 09:38:00,47.5,46.1,29.91,East,100,1.0,1.0,95,0.05,,,0.28,Wunderground v.1.15,2014-01-02 14:38:00,
2014-01-02 09:49:00,47.8,46.7,29.91,East,100,0.0,0.0,96,0.00,,,0.28,Wunderground v.1.15,2014-01-02 14:49:00,
2014-01-02 10:08:00,48.4,47.3,29.89,SSE,166,2.0,3.0,96,0.00,,,0.29,Wunderground v.1.15,2014-01-02 15:08:00,
2014-01-02 10:23:00,49.2,48.1,29.89,South,170,0.0,0.0,96,0.00,,,0.30,Wunderground v.1.15,2014-01-02 15:23:00,
2014-01-02 10:34:00,49.6,48.5,29.88,South,170,0.0,0.0,96,0.00,,,0.30,Wunderground v.1.15,2014-01-02 15:34:00,
2014-01-02 10:48:00,50.1,49.0,29.87,SSE,159,3.0,3.0,96,0.00,,,0.31,Wunderground v.1.15,2014-01-02 15:48:00,
2014-01-02 11:04:00,50.7,49.6,29.86,SSE,152,3.0,6.0,96,0.00,,,0.31,Wunderground v.1.15,2014-01-02 16:04:00,
2014-01-02 11:19:00,51.0,49.9,29.86,South,169,1.0,1.0,96,0.00,,,0.32,Wunderground v.1.15,2014-01-02 16:19:00,
2014-01-02 11:34:00,51.2,50.1,29.84,South,174,0.0,0.0,96,0.00,,,0.32,Wunderground v.1.15,2014-01-02 16:34:00,
2014-01-02 11:48:00,51.3,50.2,29.83,NW,325,1.0,1.0,96,0.00,,,0.32,Wunderground v.1.15,2014-01-02 16:48:00,
2014-01-02 12:03:00,51.3,50.2,29.82,NW,325,1.0,2.0,96,0.00,,,0.33,Wunderground v.1.15,2014-01-02 17:03:00,
2014-01-02 12:14:00,50.9,49.8,29.81,NW,324,1.0,1.0,96,0.04,,,0.34,Wunderground v.1.15,2014-01-02 17:14:00,
2014-01-02 12:29:00,50.6,49.5,29.80,WNW,294,2.0,2.0,96,0.04,,,0.35,Wunderground v.1.15,2014-01-02 17:29:00,
2014-01-02 12:44:00,50.8,49.7,29.79,WNW,294,1.0,1.0,96,0.04,,,0.36,Wunderground v.1.15,2014-01-02 17:44:00,
2014-01-02 15:13:00,53.0,51.9,29.69,SSW,196,2.0,2.0,96,0.08,,,0.62,Wunderground v.1.15,2014-01-02 20:13:00,
2014-01-02 15:18:00,53.1,52.0,29.69,SSW,200,2.0,2.0,96,0.07,,,0.63,Wunderground v.1.15,2014-01-02 20:18:00,
2014-01-02 15:23:00,53.2,52.1,29.69,SSW,200,2.0,2.0,96,0.07,,,0.63,Wunderground v.1.15,2014-01-02 20:23:00,
2014-01-02 15:28:00,53.4,52.3,29.69,SSW,200,1.0,2.0,96,0.06,,,0.64,Wunderground v.1.15,2014-01-02 20:28:00,
2014-01-02 15:33:00,53.5,52.4,29.68,South,169,2.0,2.0,96,0.06,,,0.64,Wunderground v.1.15,2014-01-02 20:33:00,
2014-01-02 15:38:00,53.6,52.5,29.67,South,175,2.0,2.0,96,0.04,,,0.64,Wunderground v.1.15,2014-01-02 20:38:00,
2014-01-02 15:43:00,53.7,52.6,29.67,South,178,1.0,2.0,96,0.00,,,0.64,Wunderground v.1.15,2014-01-02 20:43:00,
2014-01-02 15:48:00,53.7,52.6,29.67,SSW,197,2.0,3.0,96,0.00,,,0.65,Wunderground v.1.15,2014-01-02 20:48:00,
2014-01-02 15:58:00,53.9,52.8,29.67,SW,216,2.0,2.0,96,0.00,,,0.65,Wunderground v.1.15,2014-01-02 20:58:00,
2014-01-02 16:03:00,54.0,52.9,29.66,SW,214,2.0,2.0,96,0.00,,,0.65,Wunderground v.1.15,2014-01-02 21:03:00,
2014-01-02 16:08:00,54.1,53.0,29.66,SW,214,2.0,2.0,96,0.00,,,0.65,Wunderground v.1.15,2014-01-02 21:08:00,
2014-01-02 16:13:00,54.1,53.0,29.66,SW,214,1.0,2.0,96,0.00,,,0.65,Wunderground v.1.15,2014-01-02 21:13:00,
2014-01-02 16:18:00,54.1,53.0,29.65,SW,215,1.0,1.0,96,0.00,,,0.65,Wunderground v.1.15,2014-01-02 21:18:00,
2014-01-02 16:28:00,54.2,53.1,29.66,West,275,0.0,0.0,96,0.00,,,0.65,Wunderground v.1.15,2014-01-02 21:28:00,
2014-01-02 16:33:00,54.2,53.1,29.66,West,275,1.0,2.0,96,0.00,,,0.65,Wunderground v.1.15,2014-01-02 21:33:00,
2014-01-02 16:38:00,54.2,53.1,29.66,West,275,1.0,2.0,96,0.00,,,0.65,Wunderground v.1.15,2014-01-02 21:38:00,
2014-01-02 16:43:00,54.2,53.1,29.65,West,274,1.0,2.0,96,0.00,,,0.65,Wunderground v.1.15,2014-01-02 21:43:00,
2014-01-02 16:48:00,54.2,53.1,29.65,West,274,1.0,1.0,96,0.00,,,0.65,Wunderground v.1.15,2014-01-02 21:48:00,
2014-01-02 16:53:00,54.1,53.0,29.64,West,274,0.0,1.0,96,0.00,,,0.65,Wunderground v.1.15,2014-01-02 21:53:00,
2014-01-02 16:58:00,54.0,52.9,29.64,West,274,1.0,1.0,96,0.00,,,0.66,Wunderground v.1.15,2014-01-02 21:58:00,
2014-01-02 17:03:00,54.0,52.9,29.64,West,274,0.0,1.0,96,0.00,,,0.66,Wunderground v.1.15,2014-01-02 22:03:00,
2014-01-02 17:08:00,53.9,52.8,29.63,West,274,1.0,1.0,96,0.00,,,0.66,Wunderground v.1.15,2014-01-02 22:08:00,
2014-01-02 17:13:00,53.9,52.8,29.63,West,274,0.0,2.0,96,0.00,,,0.66,Wunderground v.1.15,2014-01-02 22:13:00,
2014-01-02 17:18:00,53.9,52.8,29.62,West,274,1.0,1.0,96,0.00,,,0.66,Wunderground v.1.15,2014-01-02 22:18:00,
2014-01-02 17:23:00,53.9,52.8,29.62,West,274,1.0,1.0,96,0.00,,,0.66,Wunderground v.1.15,2014-01-02 22:23:00,
2014-01-02 17:28:00,53.9,52.8,29.62,West,274,1.0,1.0,96,0.00,,,0.66,Wunderground v.1.15,2014-01-02 22:28:00,
2014-01-02 17:33:00,53.8,52.7,29.62,West,274,1.0,3.0,96,0.00,,,0.66,Wunderground v.1.15,2014-01-02 22:33:00,
2014-01-02 17:38:00,53.8,52.7,29.62,West,274,1.0,1.0,96,0.00,,,0.66,Wunderground v.1.15,2014-01-02 22:38:00,
2014-01-02 17:43:00,53.7,52.6,29.62,West,274,1.0,1.0,96,0.00,,,0.66,Wunderground v.1.15,2014-01-02 22:43:00,
2014-01-02 17:48:00,53.7,52.6,29.61,West,271,1.0,2.0,96,0.00,,,0.66,Wunderground v.1.15,2014-01-02 22:48:00,
2014-01-02 17:58:00,53.7,52.6,29.61,West,269,2.0,3.0,96,0.00,,,0.66,Wunderground v.1.15,2014-01-02 22:58:00,
2014-01-02 18:03:00,53.7,52.6,29.61,West,269,2.0,3.0,96,0.00,,,0.66,Wunderground v.1.15,2014-01-02 23:03:00,
2014-01-02 18:08:00,53.7,52.6,29.60,West,269,3.0,3.0,96,0.00,,,0.66,Wunderground v.1.15,2014-01-02 23:08:00,
2014-01-02 18:13:00,53.7,52.6,29.60,West,269,3.0,3.0,96,0.00,,,0.66,Wunderground v.1.15,2014-01-02 23:13:00,
2014-01-02 18:18:00,53.7,52.6,29.59,West,269,3.0,3.0,96,0.00,,,0.66,Wunderground v.1.15,2014-01-02 23:18:00,
2014-01-02 18:23:00,53.7,52.6,29.59,West,269,3.0,3.0,96,0.00,,,0.66,Wunderground v.1.15,2014-01-02 23:23:00,
2014-01-02 18:28:00,53.8,52.7,29.60,West,269,3.0,3.0,96,0.00,,,0.66,Wunderground v.1.15,2014-01-02 23:28:00,
2014-01-02 18:33:00,53.9,52.8,29.60,West,269,2.0,4.0,96,0.00,,,0.66,Wunderground v.1.15,2014-01-02 23:33:00,
2014-01-02 18:38:00,53.9,52.8,29.60,West,269,2.0,2.0,96,0.00,,,0.66,Wunderground v.1.15,2014-01-02 23:38:00,
2014-01-02 18:43:00,53.9,52.8,29.59,West,269,2.0,2.0,96,0.00,,,0.66,Wunderground v.1.15,2014-01-02 23:43:00,
2014-01-02 18:48:00,53.9,52.8,29.59,West,269,2.0,2.0,96,0.00,,,0.66,Wunderground v.1.15,2014-01-02 23:48:00,
2014-01-02 18:53:00,54.0,52.9,29.59,West,269,2.0,2.0,96,0.00,,,0.66,Wunderground v.1.15,2014-01-02 23:53:00,
2014-01-02 18:58:00,54.0,52.9,29.58,West,269,2.0,2.0,96,0.00,,,0.66,Wunderground v.1.15,2014-01-02 23:58:00,
2014-01-02 19:08:00,54.0,52.9,29.58,West,269,2.0,3.0,96,0.00,,,0.66,Wunderground v.1.15,2014-01-03 00:08:00,
2014-01-02 19:13:00,54.0,52.9,29.59,SW,234,3.0,4.0,96,0.00,,,0.67,Wunderground v.1.15,2014-01-03 00:13:00,
2014-01-02 19:18:00,54.1,53.0,29.58,WSW,249,3.0,3.0,96,0.38,,,0.69,Wunderground v.1.15,2014-01-03 00:18:00,
2014-01-02 19:23:00,54.1,53.0,29.59,WNW,301,3.0,4.0,96,0.21,,,0.70,Wunderground v.1.15,2014-01-03 00:23:00,
2014-01-02 19:28:00,54.0,52.9,29.59,WNW,293,3.0,5.0,96,0.08,,,0.70,Wunderground v.1.15,2014-01-03 00:28:00,
2014-01-02 19:33:00,53.9,52.8,29.60,WNW,298,4.0,5.0,96,0.05,,,0.70,Wunderground v.1.15,2014-01-03 00:33:00,
2014-01-02 19:38:00,53.8,52.7,29.61,West,278,5.0,6.0,96,0.04,,,0.71,Wunderground v.1.15,2014-01-03 00:38:00,
2014-01-02 19:43:00,53.9,52.8,29.62,WNW,294,6.0,7.0,96,0.04,,,0.71,Wunderground v.1.15,2014-01-03 00:43:00,
2014-01-02 19:48:00,53.7,52.6,29.62,NW,323,7.0,7.0,96,0.04,,,0.71,Wunderground v.1.15,2014-01-03 00:48:00,
2014-01-02 19:53:00,53.2,52.1,29.62,NW,305,7.0,7.0,96,0.04,,,0.71,Wunderground v.1.15,2014-01-03 00:53:00,
2014-01-02 19:58:00,52.6,51.5,29.62,WNW,288,7.0,7.0,96,0.00,,,0.71,Wunderground v.1.15,2014-01-03 00:58:00,
2014-01-02 20:03:00,52.2,51.1,29.62,West,281,7.0,7.0,96,0.00,,,0.71,Wunderground v.1.15,2014-01-03 01:03:00,
2014-01-02 20:08:00,52.0,50.9,29.62,WNW,302,6.0,6.0,96,0.00,,,0.71,Wunderground v.1.15,2014-01-03 01:08:00,
2014-01-02 20:18:00,51.9,50.8,29.63,West,276,6.0,6.0,96,0.00,,,0.71,Wunderground v.1.15,2014-01-03 01:18:00,
2014-01-02 20:23:00,51.9,50.8,29.62,West,267,5.0,6.0,96,0.00,,,0.71,Wunderground v.1.15,2014-01-03 01:23:00,
2014-01-02 20:28:00,51.9,50.8,29.63,NW,306,5.0,5.0,96,0.00,,,0.72,Wunderground v.1.15,2014-01-03 01:28:00,
2014-01-02 20:33:00,51.8,50.7,29.63,West,274,6.0,8.0,96,0.00,,,0.72,Wunderground v.1.15,2014-01-03 01:33:00,
2014-01-02 20:38:00,51.8,50.7,29.63,West,275,6.0,6.0,96,0.00,,,0.72,Wunderground v.1.15,2014-01-03 01:38:00,
2014-01-02 20:43:00,51.8,50.7,29.62,WSW,254,7.0,7.0,96,0.00,,,0.72,Wunderground v.1.15,2014-01-03 01:43:00,
2014-01-02 20:48:00,51.8,50.7,29.62,WSW,257,7.0,12.0,96,0.00,,,0.72,Wunderground v.1.15,2014-01-03 01:48:00,
2014-01-02 20:53:00,51.8,50.7,29.61,West,278,7.0,12.0,96,0.00,,,0.72,Wunderground v.1.15,2014-01-03 01:53:00,
2014-01-02 20:58:00,51.8,50.7,29.61,West,259,7.0,7.0,96,0.00,,,0.72,Wunderground v.1.15,2014-01-03 01:58:00,
2014-01-02 21:03:00,51.9,50.8,29.62,WSW,254,7.0,7.0,96,0.00,,,0.72,Wunderground v.1.15,2014-01-03 02:03:00,
2014-01-02 21:08:00,51.9,50.8,29.62,WNW,283,7.0,7.0,96,0.00,,,0.72,Wunderground v.1.15,2014-01-03 02:08:00,
2014-01-02 21:13:00,51.9,50.8,29.61,WSW,253,6.0,7.0,96,0.00,,,0.72,Wunderground v.1.15,2014-01-03 02:13:00,
2014-01-02 21:18:00,51.9,50.8,29.61,WSW,248,5.0,10.0,96,0.00,,,0.72,Wunderground v.1.15,2014-01-03 02:18:00,
2014-01-02 21:28:00,52.0,50.9,29.61,West,259,7.0,8.0,96,0.00,,,0.72,Wunderground v.1.15,2014-01-03 02:28:00,
2014-01-02 21:33:00,52.0,50.9,29.62,West,278,7.0,10.0,96,0.00,,,0.72,Wunderground v.1.15,2014-01-03 02:33:00,
2014-01-02 21:38:00,52.1,51.0,29.62,West,271,7.0,7.0,96,0.00,,,0.72,Wunderground v.1.15,2014-01-03 02:38:00,
2014-01-02 21:43:00,52.1,51.0,29.62,WNW,287,7.0,7.0,96,0.00,,,0.72,Wunderground v.1.15,2014-01-03 02:43:00,
2014-01-02 21:48:00,52.1,51.0,29.62,WNW,287,7.0,7.0,96,0.00,,,0.72,Wunderground v.1.15,2014-01-03 02:48:00,
2014-01-02 21:53:00,52.2,51.1,29.62,WSW,257,7.0,7.0,96,0.00,,,0.72,Wunderground v.1.15,2014-01-03 02:53:00,
2014-01-02 21:58:00,52.2,51.1,29.62,West,270,7.0,8.0,96,0.00,,,0.72,Wunderground v.1.15,2014-01-03 02:58:00,
2014-01-02 22:03:00,52.2,51.1,29.62,NW,319,8.0,8.0,96,0.00,,,0.72,Wunderground v.1.15,2014-01-03 03:03:00,
2014-01-02 22:08:00,52.3,51.2,29.62,WNW,292,9.0,9.0,96,0.00,,,0.72,Wunderground v.1.15,2014-01-03 03:08:00,
2014-01-02 22:13:00,52.3,51.2,29.62,West,280,9.0,9.0,96,0.00,,,0.72,Wunderground v.1.15,2014-01-03 03:13:00,
2014-01-02 22:18:00,52.3,50.9,29.62,West,275,9.0,9.0,95,0.00,,,0.72,Wunderground v.1.15,2014-01-03 03:18:00,
2014-01-02 22:23:00,52.3,50.9,29.62,WNW,287,9.0,13.0,95,0.00,,,0.72,Wunderground v.1.15,2014-01-03 03:23:00,
2014-01-02 22:28:00,52.4,51.0,29.62,West,271,10.0,10.0,95,0.00,,,0.72,Wunderground v.1.15,2014-01-03 03:28:00,
2014-01-02 22:33:00,52.4,51.0,29.63,West,275,9.0,11.0,95,0.00,,,0.72,Wunderground v.1.15,2014-01-03 03:33:00,
2014-01-02 22:38:00,52.4,51.0,29.63,West,263,9.0,9.0,95,0.00,,,0.72,Wunderground v.1.15,2014-01-03 03:38:00,
2014-01-02 22:48:00,52.5,50.8,29.63,West,259,9.0,11.0,94,0.00,,,0.72,Wunderground v.1.15,2014-01-03 03:48:00,
2014-01-02 22:53:00,52.5,50.5,29.63,NW,307,10.0,11.0,93,0.00,,,0.72,Wunderground v.1.15,2014-01-03 03:53:00,
2014-01-02 22:58:00,52.4,50.4,29.64,West,280,11.0,11.0,93,0.00,,,0.72,Wunderground v.1.15,2014-01-03 03:58:00,
2014-01-02 23:03:00,52.4,50.4,29.64,West,279,10.0,11.0,93,0.00,,,0.72,Wunderground v.1.15,2014-01-03 04:03:00,
2014-01-02 23:08:00,52.4,50.1,29.64,WNW,286,11.0,14.0,92,0.00,,,0.72,Wunderground v.1.15,2014-01-03 04:08:00,
2014-01-02 23:13:00,52.4,49.8,29.64,WNW,297,11.0,14.0,91,0.00,,,0.72,Wunderground v.1.15,2014-01-03 04:13:00,
2014-01-02 23:18:00,52.3,49.8,29.64,West,281,11.0,11.0,91,0.00,,,0.72,Wunderground v.1.15,2014-01-03 04:18:00,
2014-01-02 23:23:00,52.2,49.4,29.64,West,279,9.0,11.0,90,0.00,,,0.72,Wunderground v.1.15,2014-01-03 04:23:00,
2014-01-02 23:28:00,52.1,49.3,29.64,West,274,8.0,9.0,90,0.00,,,0.72,Wunderground v.1.15,2014-01-03 04:28:00,
2014-01-02 23:33:00,51.9,48.8,29.65,WNW,284,8.0,9.0,89,0.00,,,0.72,Wunderground v.1.15,2014-01-03 04:33:00,
2014-01-02 23:38:00,51.8,48.7,29.65,WNW,294,7.0,7.0,89,0.00,,,0.72,Wunderground v.1.15,2014-01-03 04:38:00,
2014-01-02 23:43:00,51.7,48.6,29.65,WNW,285,7.0,7.0,89,0.00,,,0.72,Wunderground v.1.15,2014-01-03 04:43:00,
2014-01-02 23:48:00,51.6,48.5,29.66,NW,313,7.0,7.0,89,0.00,,,0.72,Wunderground v.1.15,2014-01-03 04:48:00,
2014-01-02 23:53:00,51.5,48.4,29.66,WNW,296,8.0,8.0,89,0.00,,,0.72,Wunderground v.1.15,2014-01-03 04:53:00,
2014-01-02 23:58:00,51.4,48.0,29.66,West,265,8.0,9.0,88,0.00,,,0.72,Wunderground v.1.15,2014-01-03 04:58:00,